Weather Roundup
Issued by NWS Springfield, MO

Home | Current Version | Previous Version | Text Only | Print | Product List | Glossary On
Versions: 1 2 3 4 5 6 7 8 9 10 11 12 13 14 15 16 17 18 19 20 21 22 23 24 25 26 27 28 29 30 31 32 33 34 35 36 37 38 39 40 41 42 43 44 45 46 47 48 49 50
000
NZUS99 KSGF 230507
HRRSGF

HOURLY WEATHER
NATIONAL WEATHER SERVICE SPRINGFIELD MO
1200 AM CDT SUN JUL 23 2017

......SGF CWA......

CITY           SKY/WX    TMP DP  RH WIND       PRES   REMARKS
SPRINGFIELD    CLEAR     82  74  76 S9        29.91R
JOPLIN         CLEAR     86  72  62 S13       29.89R HX  92
WEST PLAINS    CLEAR     82  72  71 SW7       29.93S
ROLLA          CLEAR     80  72  76 SW6       29.87S
OSAGE BEACH    CLOUDY    87  74  64 SW6       29.86S HX  95
BRANSON        CLEAR     81  68  65 CALM      29.95R

......SURROUNDING SGF CWA......

CITY           SKY/WX    TMP DP  RH WIND       PRES   REMARKS
CHANUTE        CLOUDY    82  67  60 NE14G25   29.92R
PARSONS        CLOUDY    83  72  69 N13       29.90R
COFFEYVILLE    CLEAR     84  72  67 S9        29.86R
EMPORIA        CLOUDY    71  67  87 N9        29.97F
GROVE OK       CLEAR     81  73  78 CALM      29.92R
ROGERS AR      CLEAR     82  72  71 CALM      29.95R
SILOAM SPRINGS CLEAR     79  66  65 S8        29.93R
HARRISON AR    CLEAR     75  71  87 S5        29.94R
NEAR YELLVILLE CLEAR     81  70  69 CALM      29.89R

......KANSAS AND MISSOURI......

CITY           SKY/WX    TMP DP  RH WIND       PRES   REMARKS
KANSAS CTY INT CLOUDY    73  69  87 E8        29.95F
DOWNTOWN KC    LGT RAIN  74  70  87 NE10      29.90F
COLUMBIA       CLOUDY    82  78  88 S6        29.83F HX  91
SEDALIA        TSTM      74  74 100 NW29G47   29.92R VSB 1
ST JOSEPH      CLOUDY    79  72  79 SW6       29.93R
ST LOUIS       CLOUDY    89  73  59 S9        29.82S HX  97
SPIRIT OF STL  CLOUDY    77  74  90 CALM      29.81R
KIRKSVILLE     CLOUDY    78  74  87 N8        29.88S
WICHITA        MOCLDY    74  70  87 NE14      29.94F
TOPEKA         LGT RAIN  74  74 100 SW6       29.97F
OLATHE         CLOUDY    69  67  93 NW6       29.98R

......TENNESSEE......

CITY           SKY/WX    TMP DP  RH WIND       PRES   REMARKS
MEMPHIS        PTCLDY    83  75  77 S9        29.91F HX  90
NASHVILLE      CLEAR     84  73  69 SW6       29.94R HX  90

......ARKANSAS.......

CITY           SKY/WX    TMP DP  RH WIND       PRES   REMARKS
FAYETTEVILLE   CLEAR     75  74  96 S6        29.94R
FT SMITH       CLEAR     85  73  67 S5        29.89S HX  91
LITTLE ROCK    PTCLDY    81  78  91 S9        29.90F

......OKLAHOMA.......

CITY           SKY/WX    TMP DP  RH WIND       PRES   REMARKS
TULSA          CLEAR     89  73  59 S15       29.85F HX  97
PONCA CITY     CLEAR     89  70  53 S8G18     29.86S HX  94
MCALESTER      CLEAR     84  73  69 VRB3      29.92R HX  90
OKLAHOMA CITY  PTCLDY    84  71  65 S8        29.90S

......IOWA............

CITY           SKY/WX    TMP DP  RH WIND       PRES   REMARKS
DES MOINES     MOCLDY    79  75  87 W5        29.87S
QUAD CITIES    CLOUDY    75  72  90 CALM      29.81F

......ILLINOIS........

CITY           SKY/WX    TMP DP  RH WIND       PRES   REMARKS
QUINCY         CLOUDY    81  78  91 N6        29.83R
CHICAGO        PTCLDY    74  68  81 SE6       29.79F




USA.gov is the U.S. government's official web portal to all federal, state and local government web resources and services.